This is the latest recevied weather packets stored in our database for station/object WB4ROX. If no packets are shown the sender has not sent any weather packets the latest 10 day(s).
| Time | Temp. | Humidity | Pressure | Rain* | Wind** | Luminosity | Snow |
|---|---|---|---|---|---|---|---|
| 1777553692 | 5.56° C | 98% | 1014.4 hPa | 0 mm | - | 51 W/m² | - |
| 1777553389 | 5° C | 98% | 1014.6 hPa | 0 mm | - | 28 W/m² | - |
| 1777553085 | 5.56° C | 98% | 1014.6 hPa | 0 mm | - | 29 W/m² | - |
| 1777552785 | 5.56° C | 98% | 1014.4 hPa | 0 mm | - | 11 W/m² | - |
| 1777552481 | 5.56° C | 98% | 1014.1 hPa | 0 mm | - | 9 W/m² | - |
| 1777552177 | 5.56° C | 98% | 1014.4 hPa | 0 mm | - | 10 W/m² | - |
| 1777551875 | 5.56° C | 98% | 1014.1 hPa | 0 mm | - | 14 W/m² | - |
| 1777551572 | 5.56° C | 98% | 1014 hPa | 0 mm | - | 16 W/m² | - |
| 1777551269 | 5.56° C | 98% | 1013.9 hPa | 0 mm | - | 11 W/m² | - |
| 1777550966 | 5.56° C | 98% | 1014.1 hPa | 0 mm | - | 11 W/m² | - |
| 1777550663 | 5.56° C | 98% | 1013.9 hPa | 0 mm | - | 7 W/m² | - |
| 1777550359 | 5.56° C | 98% | 1013.6 hPa | 0 mm | - | 11 W/m² | - |
| 1777550055 | 5.56° C | 98% | 1013.9 hPa | 0 mm | - | 11 W/m² | - |
| 1777549752 | 5.56° C | 98% | 1013.9 hPa | 0 mm | - | 10 W/m² | - |
| 1777549447 | 5.56° C | 98% | 1013.5 hPa | 0 mm | - | 5 W/m² | - |
| 1777549144 | 5.56° C | 98% | 1013.9 hPa | 0 mm | - | 4 W/m² | - |
| 1777548840 | 5.56° C | 98% | 1013.7 hPa | 0 mm | - | 4 W/m² | - |
| 1777548538 | 5.56° C | 98% | 1013.7 hPa | 0 mm | - | 3 W/m² | - |
| 1777548234 | 5.56° C | 98% | 1013.5 hPa | 0 mm | - | 3 W/m² | - |
| 1777547931 | 6.11° C | 98% | 1013.5 hPa | 0 mm | - | 2 W/m² | - |
| 1777547627 | 6.11° C | 98% | 1013.2 hPa | 0 mm | - | 2 W/m² | - |
| 1777547324 | 6.11° C | 98% | 1013.3 hPa | 0 mm | - | 2 W/m² | - |
| 1777547021 | 6.11° C | 98% | 1013.6 hPa | 0 mm | - | 5 W/m² | - |
| 1777546718 | 6.11° C | 98% | 1013.1 hPa | 0 mm | - | 3 W/m² | - |
| 1777546415 | 6.11° C | 98% | 1013.2 hPa | 0 mm | - | 4 W/m² | - |
* Rain latest hour (hover to see other rain measurements)
** Current wind speed in m/s (hover to see current wind gust speed)